St. Marys, AK

3:16 AM AKST on November 17, 2019 (GMT -0900)
Saint Mary's

Weather History for PASM - September, 2019

Change the Weather History Date:

Friday, September 27, 2019

  Actual Average Record
Temperature  
Mean Temperature 45 °F -  
Max Temperature 46 °F 41 °F 51 °F (2003)
Min Temperature 44 °F 31 °F 21 °F (1996)
Degree Days  
Heating Degree Days 20    
Moisture  
Dew Point 44 °F    
Average Humidity 91    
Maximum Humidity 96    
Minimum Humidity 83    
Precipitation  
Precipitation 0.12 in - - ()
Sea Level Pressure  
Sea Level Pressure 30.10 in    
Wind  
Wind Speed 15 mph ()    
Max Wind Speed 20 mph    
Max Gust Speed 32 mph    
Visibility 9.5 miles    
Events Rain    
Averages and records for this station are not official NWS values.
T = Trace of Precipitation, MM = Missing Value Source: Averaged Metar Reports

Daily Weather History Graph

Daily Weather History Graph

Search for Another Location

Airport or City:

Astronomy

Sep. 27, 2019 Rise Set
Actual Time 8:49 AM AKDT 8:36 PM AKDT
Civil Twilight 8:05 AM AKDT 9:20 PM AKDT
Nautical Twilight 7:12 AM AKDT 10:13 PM AKDT
Astronomical Twilight 6:15 AM AKDT 11:10 PM AKDT
Moon 6:41 AM AKDT (9/27) 9:04 PM AKDT (9/27)
Length of Visible Light 13h 15m
Length of Day
11h 46m
Waning Crescent, 1% of the Moon is Illuminated
Sep 27
Waning Crescent
Sep 28
New
Oct 5
First Quarter
Oct 13
Full
Oct 21
Last Quarter

Hourly Weather History & Observations

Time (AKDT) Temp. Windchill Dew Point Humidity Pressure Visibility Wind Dir Wind Speed Gust Speed Precip Events Conditions
12:02 AM 46.9 °F - 43.0 °F 86% 30.20 in 10.0 mi SSE 18.4 mph 27.6 mph N/A   Overcast
12:20 AM 46.4 °F 39.0 °F 42.8 °F 87% 30.17 in 10.0 mi SSE 19.6 mph 28.8 mph N/A   Overcast
12:59 AM 46.4 °F 39.8 °F 42.8 °F 87% 30.17 in 10.0 mi SSE 16.1 mph 26.5 mph N/A   Overcast
1:02 AM 46.9 °F - 43.0 °F 86% 30.20 in 10.0 mi SSE 16.1 mph 23.0 mph N/A   Overcast
2:02 AM 46.0 °F 40.2 °F 42.1 °F 86% 30.19 in 10.0 mi SSE 12.7 mph 24.2 mph N/A   Partly Cloudy
3:02 AM 46.0 °F 39.9 °F 42.1 °F 86% 30.17 in 10.0 mi SE 13.8 mph 25.3 mph N/A   Mostly Cloudy
3:50 AM 46.4 °F 40.4 °F 42.8 °F 87% 30.14 in 10.0 mi SE 13.8 mph 27.6 mph N/A   Overcast
4:02 AM 46.9 °F - 42.1 °F 83% 30.16 in 10.0 mi SE 16.1 mph 32.2 mph N/A   Mostly Cloudy
5:02 AM 46.9 °F - 42.1 °F 83% 30.15 in 10.0 mi SSE 19.6 mph 29.9 mph N/A   Overcast
6:02 AM 46.9 °F - 43.0 °F 86% 30.13 in 10.0 mi SE 18.4 mph 31.1 mph N/A   Overcast
6:28 AM 46.4 °F 39.2 °F 42.8 °F 87% 30.12 in 10.0 mi SE 18.4 mph 27.6 mph N/A   Overcast
6:51 AM 46.4 °F 39.8 °F 42.8 °F 87% 30.12 in 10.0 mi SSE 16.1 mph 27.6 mph N/A   Overcast
7:02 AM 46.9 °F - 42.1 °F 83% 30.14 in 10.0 mi SSE 18.4 mph 28.8 mph N/A   Overcast
7:15 AM 46.4 °F 40.1 °F 42.8 °F 87% 30.11 in 10.0 mi SSE 15.0 mph 28.8 mph 0.00 in Rain Light Rain
7:53 AM 44.6 °F 37.8 °F 42.8 °F 93% 30.11 in 10.0 mi SE 15.0 mph 27.6 mph 0.00 in Rain Light Rain
8:02 AM 44.6 °F 37.2 °F 42.8 °F 93% 30.10 in 10.0 mi SE 17.3 mph 25.3 mph 0.00 in Rain Light Rain
8:10 AM 44.6 °F 37.4 °F 42.8 °F 93% 30.11 in 10.0 mi SE 16.1 mph 28.8 mph 0.00 in Rain Light Rain
8:47 AM 44.6 °F 37.4 °F 42.8 °F 93% 30.10 in 10.0 mi SE 16.1 mph 25.3 mph 0.01 in Rain Light Rain
9:02 AM 45.0 °F 38.2 °F 42.1 °F 90% 30.12 in 10.0 mi SE 15.0 mph 25.3 mph 0.01 in Rain Light Rain
9:33 AM 44.6 °F 37.2 °F 42.8 °F 93% 30.10 in 10.0 mi SSE 17.3 mph 25.3 mph 0.00 in   Overcast
9:57 AM 44.6 °F 37.2 °F 42.8 °F 93% 30.09 in 10.0 mi SE 17.3 mph 25.3 mph 0.00 in   Overcast
10:02 AM 45.0 °F 37.9 °F 42.1 °F 90% 30.12 in 10.0 mi SSE 16.1 mph 25.3 mph 0.00 in   Overcast
10:14 AM 44.6 °F 37.4 °F 42.8 °F 93% 30.09 in 10.0 mi SE 16.1 mph 26.5 mph 0.00 in Rain Light Rain
10:39 AM 44.6 °F 37.4 °F 42.8 °F 93% 30.09 in 10.0 mi SE 16.1 mph 24.2 mph 0.00 in Rain Light Rain
10:42 AM 44.6 °F 37.4 °F 42.8 °F 93% 30.10 in 10.0 mi SSE 16.1 mph 24.2 mph 0.00 in Rain Light Rain
10:49 AM 44.6 °F 37.4 °F 42.8 °F 93% 30.10 in 10.0 mi SSE 16.1 mph 27.6 mph 0.00 in Rain Light Rain
11:02 AM 45.0 °F 37.9 °F 43.0 °F 93% 30.12 in 10.0 mi SE 16.1 mph 23.0 mph 0.00 in Rain Light Rain
12:02 PM 45.0 °F 38.2 °F 43.0 °F 93% 30.12 in 10.0 mi SSE 15.0 mph 20.7 mph 0.01 in Rain Light Rain
12:14 PM 46.4 °F 39.5 °F 44.6 °F 93% 30.09 in 10.0 mi SSE 17.3 mph 27.6 mph 0.00 in Rain Light Rain
12:32 PM 46.4 °F 40.1 °F 44.6 °F 93% 30.09 in 8.0 mi SSE 15.0 mph 25.3 mph 0.00 in Rain Light Rain
1:02 PM 46.0 °F 38.8 °F 45.0 °F 96% 30.11 in 10.0 mi SE 18.4 mph 25.3 mph 0.00 in Rain Light Rain
2:02 PM 46.0 °F 39.6 °F 45.0 °F 96% 30.11 in 10.0 mi SE 15.0 mph 26.5 mph 0.01 in Rain Light Rain
3:02 PM 46.9 °F - 45.0 °F 93% 30.10 in 10.0 mi SSE 17.3 mph 26.5 mph 0.01 in Rain Light Rain
4:02 PM 46.0 °F 39.3 °F 45.0 °F 96% 30.09 in 10.0 mi SSE 16.1 mph 29.9 mph 0.02 in Rain Light Rain
5:02 PM 46.9 °F - 45.0 °F 93% 30.08 in 9.0 mi SE 16.1 mph 25.3 mph 0.01 in Rain Light Rain
5:50 PM 46.4 °F 40.4 °F 44.6 °F 93% 30.05 in 10.0 mi SE 13.8 mph 23.0 mph 0.01 in Rain Light Rain
6:02 PM 46.9 °F - 45.0 °F 93% 30.07 in 10.0 mi SE 15.0 mph 25.3 mph 0.01 in Rain Light Rain
6:10 PM 46.4 °F 40.1 °F 44.6 °F 93% 30.05 in 10.0 mi SE 15.0 mph 24.2 mph 0.00 in Rain Light Rain
6:17 PM 46.4 °F 40.7 °F 44.6 °F 93% 30.04 in 10.0 mi SE 12.7 mph 21.9 mph 0.00 in Rain Light Rain
7:02 PM 46.0 °F 39.9 °F 45.0 °F 96% 30.06 in 6.0 mi SE 13.8 mph 20.7 mph 0.01 in Rain Light Rain
7:13 PM 46.4 °F 40.4 °F 44.6 °F 93% 30.03 in 5.0 mi SE 13.8 mph 20.7 mph 0.00 in Rain Light Rain
7:48 PM 46.4 °F 40.4 °F 44.6 °F 93% 30.03 in 10.0 mi SE 13.8 mph 20.7 mph 0.01 in Rain Light Rain
8:02 PM 46.9 °F - 45.0 °F 93% 30.05 in 10.0 mi SE 11.5 mph 21.9 mph 0.01 in Rain Light Rain
9:02 PM 46.9 °F - 45.0 °F 93% 30.04 in 10.0 mi SSE 16.1 mph 28.8 mph 0.01 in Rain Light Rain
10:02 PM 46.9 °F - 45.0 °F 93% 30.03 in 10.0 mi SE 13.8 mph 20.7 mph 0.01 in Rain Light Rain
10:12 PM 46.4 °F 39.8 °F 44.6 °F 93% 30.01 in 7.0 mi SE 16.1 mph 21.9 mph 0.00 in Rain Light Rain
10:39 PM 46.4 °F 40.4 °F 44.6 °F 93% 30.01 in 6.0 mi SE 13.8 mph 27.6 mph 0.00 in Rain Light Rain
11:32 PM 46.4 °F 40.7 °F 44.6 °F 93% 30.00 in 5.0 mi SE 12.7 mph 23.0 mph 0.01 in Rain Light Rain